Powrót do katalogu

USA 424

AktywnyMilitariaVLEO
NORAD 61647·PAYLOAD·🇺🇸 United States

Wystrzelony Oct 24, 2024 z Vandenberg Space Force Base

Loading…

Następne Przeloty (najbliższe 24 godziny)

TLE

NieaktualneSource: Mike McCants

Epoka: Aug 8, 2026, 21:25 UTC

1 61647U 24192D   26220.89298411 0.00000000  00000-0  00000-0 0    09
2 61647  70.0218 134.8237 0004000 226.6798 133.3201 14.96713487    09

Śledź USA 424 w czasie rzeczywistym z AllMySat

Download on the App Store